User: anonymous   Login
Location: *
(48.8667°N, 2.3331°E)
Time: 00:58:49
(UTC+00:00)
Language:

Cosmos 1943 - Orbit

View from above orbital plane
View from above orbital plane
View from above satellite
View from above satellite

Ground track
Ground track

The orbit data is extracted from the following two-line orbital elements,

1 19119U 88039A   20192.70560149  .00000301  00000-0  17938-3 0  9990
2 19119  71.0033 270.6317 0010821 164.7124 308.3880 14.15155219660477
Epoch (UTC): 10 July 2020 16:56:03
Eccentricity: 0.0010821
inclination: 71.0033°
perigee height: 834 km
apogee height: 849 km
right ascension of ascending node: 270.6317°
argument of perigee: 164.7124°
revolutions per day: 14.15155219
mean anomaly at epoch: 308.3880°
orbit number at epoch: 66047

The dashed part of the orbit path shows where the satellite is in the earth's shadow,  

DLR